User: anonymous   Login
Location: Theydon Bois
(51.6750°N, 0.1050°E)
Time: 05:36:48
(UTC+00:00)
Language:

Cosmos 1842 Rocket - Orbit

View from above orbital plane
View from above orbital plane
View from above satellite
View from above satellite

Ground track
Ground track

The orbit data is extracted from the following two-line orbital elements,

1 17912U 87038B   18022.59217756 +.00000071 +00000-0 +57847-5 0  9995
2 17912 082.5005 204.5065 0019158 225.2225 134.7432 14.82962780639164
Epoch (UTC): 22 January 2018 14:12:44
Eccentricity: 0.0019158
inclination: 82.5005°
perigee height: 606 km
apogee height: 633 km
right ascension of ascending node: 204.5065°
argument of perigee: 225.2225°
revolutions per day: 14.82962780
mean anomaly at epoch: 134.7432°
orbit number at epoch: 63916

The dashed part of the orbit path shows where the satellite is in the earth's shadow,  

DLR